Location: Eastlake (historical)
(39.0077°N, 122.6678°W)
Time: 04:55:49
(UTC+00:00)

Nadezhda 1 Rocket - Pass Details

Date: 25 November 2020
Orbit: 940 x 1006 km, 83.0° (Epoch: 24 January)

Event Time Altitude Azimuth Distance (km) Brightness Sun altitude
Exits shadow 12:45:36 22° 349° (N) 2,032 5.5 -26.7°
Maximum altitude 12:49:56 79° 265° (W) 1,011 3.9 -25.9°
Drops below altitude 10° 12:56:11 10° 180° (S) 2,721 6.4 -24.7°
Sets 12:58:39 0° 179° (S) 3,655 7.1 -24.2°
